Other Public Products
Issued by NWS Grand Forks, ND

Home | Current Version | Previous Version | Graphics & Text | Print | Product List | Glossary On
Versions: 1 2 3 4 5 6 7 8 9 10 11 12 13 14 15 16 17 18 19 20 21 22 23 24 25 26 27 28 29 30 31 32 33 34 35 36 37 38 39 40 41 42 43 44 45 46 47 48 49 50
000
FPUS83 KFGF 110131
OPUFGF
PRAIRIE TO PINES WEATHER ROUNDUP
NATIONAL WEATHER SERVICE EASTERN NORTH DAKOTA/GRAND FORKS ND
700 PM CST SUN DEC 10 2017

 **SATELLITE DATA USED TO AUGMENT SKY COVER AT AUTOMATED STATIONS**
 *****  WEATHER ACROSS EASTERN NORTH DAKOTA  *****

CITY           SKY/WX    TMP DP  RH WIND       PRES   REMARKS
GRAND FORKS    CLOUDY    25  22  88 S8        29.93F WCI  16
GRND FORKS AFB MOCLDY    25  22  86 S8        29.92F WCI  16
GRND FORKS NWS   N/A     25 N/A N/A S7          N/A  WCI  17
BUXTON           N/A    N/A N/A N/A CALM        N/A
DEVILS LAKE    LGT RAIN  33  28  81 S6        29.86F
FARGO          MOCLDY    28  21  75 S5        29.96F WCI  23
WAHPETON ARPT  CLOUDY    30  23  74 SE6       29.96F WCI  24
$$

 *****  WEATHER ACROSS CENTRAL AND WESTERN NORTH DAKOTA  *****

CITY           SKY/WX    TMP DP  RH WIND       PRES   REMARKS
JAMESTOWN      MOCLDY    37  29  72 W7        29.91F
BISMARCK       FAIR      43  28  55 CALM      29.97F
MINOT          CLOUDY    42  28  57 SW12      29.88F
MINOT AFB      CLOUDY    40  28  62 W14       29.87F
GARRISON         N/A     40  24  53 W12       29.94F
WILLISTON      FAIR      39  21  48 W12       29.98F
DICKINSON      FAIR      36  22  56 W10       29.99F
HETTINGER      MOCLDY    42  17  36 NW8       30.04F
$$

 *****  OTHER OBSERVATIONS NORTHEAST NORTH DAKOTA  *****

CITY           SKY/WX    TMP DP  RH WIND       PRES   REMARKS
WALHALLA       FAIR      27  27 100 SE10      29.84F WCI  17
LANGDON        NOT AVBL
CAVALIER       MIX PCPN  25  23  93 S12       29.87F WCI  14
GRAFTON        NOT AVBL
CANDO          CLOUDY    34  34 100 SW7       29.84F
FORT TOTTEN      N/A     35  27  72 CALM      29.95
ROLLA          CLOUDY    32  30  93 SW8       29.80F WCI  25
RUGBY          NOT AVBL
 ***** THE ABOVE OBSERVATIONS ARE NON NWS ARE NOT QUALITY
        CONTROLLED AND MAY MIS-REPORT RAIN FOR SNOW...
$$

 *****  OTHER OBSERVATIONS SOUTHEAST NORTH DAKOTA *****

CITY           SKY/WX    TMP DP  RH WIND       PRES   REMARKS
COOPERSTOWN    FAIR      32  30  93 S6        29.91F
VALLEY CITY    NOT AVBL
OAKES            N/A     34  30  86 MISG      29.95F
GWINNER          N/A     34  28  80 SW5       29.94F
SHEYENNE NWR     N/A     30  26  85 S6        29.95S WCI  24
BUFFALO          N/A     29  24  82 SW8         N/A  WCI  21
WYNDMERE       NOT AVBL
 ***** THE ABOVE OBSERVATIONS ARE NON NWS ARE NOT QUALITY
       CONTROLLED AND MAY MIS-REPORT RAIN FOR SNOW...
$$

  *****  WEATHER ACROSS NORTHERN MINNESOTA  *****

CITY           SKY/WX    TMP DP  RH WIND       PRES   REMARKS
FLAG ISLAND    FAIR      10   9  92 S7        29.89F WCI   0
WARROAD        CLOUDY    16  12  86 S3        29.92F
ROSEAU         CLOUDY    18  12  79 S9        29.92S WCI   6
HALLOCK        FLURRIES  23  21  93 S12       29.91F WCI  12
THF RVR FALLS  CLOUDY    20  17  88 S7        29.95F WCI  11
HALSTAD        NOT AVBL
FOSSTON        MOCLDY    18  16  93 S5        29.94F WCI  11
BAUDETTE       MOCLDY    14  11  87 S6        29.91F WCI   5
WASKISH        CLOUDY    19  18  93 S3        29.93F
CROOKSTON      CLOUDY    23  21  93 S8        29.95F WCI  14
$$
  *****  WEATHER ACROSS CENTRAL AND WEST MINNESOTA  *****

CITY           SKY/WX    TMP DP  RH WIND       PRES   REMARKS
BEMIDJI        FAIR      15  13  92 S3        29.93F
PARK RAPIDS    FAIR      17  13  84 SW3       29.94F
WADENA         CLOUDY    19  16  86 CALM      29.94F
DETROIT LAKES  FAIR      23  21  93 SE5       29.94F WCI  17
MOORHEAD       MOCLDY    27  21  80 CALM      29.97R
FERGUS FALLS   FAIR      25  19  80 S6        29.98F WCI  18
ELBOW LAKE     CLOUDY    27  22  84 E5        29.97F WCI  21
MORRIS MN      CLOUDY    30  23  74 S6        29.97F WCI  24
STAPLES        MOCLDY    18  16  93 SW3       29.96F
WHEATON        NOT AVBL
$$
  *****  WEATHER ELSEWHERE ACROSS MINNESOTA  *****

CITY           SKY/WX    TMP DP  RH WIND       PRES   REMARKS
DULUTH         MOCLDY    13   9  84 NW8       29.97F WCI   2
INTRNTL FALLS  CLOUDY     5   2  87 S3        29.95F
ELY            FAIR       0  -4  85 CALM      29.95F
CLOQUET        FAIR      18  12  79 CALM      29.98F
BRAINERD       FAIR      20  14  77 SW3       29.98F
HIBBING        FAIR       7   5  91 CALM      29.96F
ALEXANDRIA     CLOUDY    25  19  78 CALM      29.99F
SAINT CLOUD    FAIR      20  17  88 CALM      30.01F
MINNEAPOLIS    MOCLDY    25  20  81 CALM      30.05S
$$

  *****  WEATHER ACROSS SOUTH DAKOTA  *****

CITY           SKY/WX    TMP DP  RH WIND       PRES   REMARKS
SIOUX FALLS    MOCLDY    35  28  75 SW3       30.05F
BROOKINGS      FAIR      34  28  79 SW6       30.02F
WATERTOWN      FAIR      32  29  88 S5        29.97F
HURON          FAIR      37  28  70 SW6       30.02F
SISSETON         N/A     33  25  72 SE7       29.96F
ABERDEEN       MOCLDY    32  26  78 SW3       29.99F
MITCHELL       FAIR      38  29  70 SW7       30.05F
PIERRE         FAIR      49  20  31 W12       30.02F
MOBRIDGE       FAIR      35  27  72 S3        29.99S
RAPID CITY     FAIR      50   6  16 NW13      30.13F
$$

  *****  SOME WEATHER IN NEARBY STATES *****

CITY           SKY/WX    TMP DP  RH WIND       PRES   REMARKS
GLASGOW MT     FAIR      33  15  47 NW5       30.10S
GREAT FALLS MT FAIR      39  11  31 SW13      30.35R
CHEYENNE WY    FAIR      41   3  20 W10       30.32S
SCOTTSBLUFF NE FAIR      44   8  23 W10       30.26S
OMAHA NE       FAIR      39  24  55 SE3       30.11S
DES MOINES IA  FAIR      40  25  55 NW3       30.09S
DAVENPORT IA   FAIR      28  20  71 NW5       30.10S WCI  23
CHICAGO IL     MOCLDY    30  19  63 NW9       30.05R WCI  22
EAU CLAIRE WI  CLOUDY    19  16  88 CALM      30.04F
LA CROSSE WI   CLOUDY    27  19  72 N6        30.07F WCI  20
$$

  *****  SOME NATIONAL WEATHER *****

CITY           SKY/WX    TMP DP  RH WIND       PRES   REMARKS
LA GUARDIA NY  MOCLDY    37  22  54 SW13      30.00R
RALEIGH NC     FAIR      31  26  82 CALM      30.15R
ATLANTA GA     FAIR      37  26  64 SW5       30.22F
NEW ORLEANS LA FAIR      46  40  79 CALM      30.34R
OKLAHOMA CITY  FAIR      53  14  21 NW7       30.27R
ALBUQUERQUE NM MOCLDY    48   1  14 S3        30.45R
SALT LAKE CITY FAIR      29  25  85 W3        30.58F FOG
LOS ANGELES CA MOCLDY    79  14   8 N7        30.08S
BOISE ID       CLOUDY    26  20  77 CALM      30.66S
SEATTLE WA     FAIR      44  31  60 N10       30.34S
$$

*** WEATHER ACROSS MANITOBA...SASKATCHEWAN AND ONTARIO ***
                ***ONTARIO***

CITY           SKY/WX    TMP DP  RH WIND       PRES   REMARKS
GERALDTON      CLEAR    -13 -18  77 W3        29.95F
THUNDER BAY    PTCLDY     1  -2  85 CALM      30.06S
SIOUX LOOKOUT  CLEAR    -13 -17  84 S3        29.94F
TORONTO        FLURRIES  27  19  74 SW15      29.84S WCI  15
BIG TROUT LK   CLOUDY    -4  -9  77 W13       29.88R WCI -23
PICKLE LAKE    CLOUDY    -6  -9  84 SW8       29.89F WCI -21
DRYDEN         CLEAR      0  -4  85 S6        29.92F WCI -12
KENORA         MOCLDY     9   7  92 S7        29.88F WCI  -3
$$
                *** MANITOBA***

CITY           SKY/WX    TMP DP  RH WIND       PRES   REMARKS
BRANDON        FRZ RAIN  32  30  93 W10       29.78F WCI  24
DAUPHIN        CLOUDY    32  32 100 SW10      29.70F WCI  24
ISLAND LAKE    FLURRIES   1  -4  78 S5        29.82  WCI  -8
PILOT MOUND      N/A     30  28  93 S5          N/A
THE PAS        LGT SNOW  19  16  86 CALM      29.72S
THOMPSON       FLURRIES   1  -4  78 VRB2      29.80R
WINNIPEG       LGTSLEET  21  19  93 S13       29.85F VSB 1   WCI   9
LYNN LAKE      FLURRIES  10   9  92 N14G21    29.82R WCI  -5
CHURCHILL      FLURRIES   3   0  85 NW7       29.89R WCI  -9
GILLAM         FLURRIES   0  -6  78 S3        29.82F
$$
                ***SASKATCHEWAN***

CITY           SKY/WX    TMP DP  RH WIND       PRES   REMARKS
ESTEVAN        MOCLDY    36  27  69 W13       29.90F
KINDERSLEY     PTCLDY    39  28  65 NW21G36   30.08R
LLOYDMINSTER   CLOUDY    39  30  70 NW24G39   30.04R
PRINCE ALBERT  LGT RAIN  37  34  87 NW14      29.79R
REGINA         MOCLDY    37  28  70 W28       29.86F
YORKTON        MOCLDY    36  30  80 SW18      29.72F



USA.gov is the U.S. government's official web portal to all federal, state and local government web resources and services.